Time,TemperatureF,DewpointF,PressureIn,WindDirection,WindDirectionDegrees,WindSpeedMPH,WindSpeedGustMPH,Humidity,HourlyPrecipIn,Conditions,Clouds,dailyrainin,SoftwareType,DateUTC
2013-01-23 00:03:00,14.0,2.0,30.30,NW,315,5.0,10.0,58,0.00,,,0.00,,2013-01-23 05:03:00,
2013-01-23 00:12:00,14.0,2.0,30.30,NW,315,5.0,10.0,58,0.00,,,0.00,,2013-01-23 05:12:00,
2013-01-23 00:22:00,14.0,2.0,30.30,NW,323,5.0,7.0,58,0.00,,,0.00,,2013-01-23 05:22:00,
2013-01-23 00:33:00,14.0,2.0,30.30,WNW,288,5.0,7.0,58,0.00,,,0.00,,2013-01-23 05:33:00,
2013-01-23 00:43:00,14.0,2.0,30.30,WNW,288,5.0,7.0,58,0.00,,,0.00,,2013-01-23 05:43:00,
2013-01-23 00:53:00,14.0,2.0,30.30,NW,316,5.0,10.0,58,0.00,,,0.00,,2013-01-23 05:53:00,
2013-01-23 01:02:00,14.0,2.0,30.30,NW,315,3.0,8.0,58,0.00,,,0.00,,2013-01-23 06:02:00,
2013-01-23 01:12:00,14.0,2.0,30.30,NW,315,3.0,8.0,58,0.00,,,0.00,,2013-01-23 06:12:00,
2013-01-23 01:22:00,13.0,1.0,30.29,WNW,288,4.0,7.0,58,0.00,,,0.00,,2013-01-23 06:22:00,
2013-01-23 01:32:00,13.0,1.0,30.29,West,275,5.0,8.0,58,0.00,,,0.00,,2013-01-23 06:32:00,
2013-01-23 01:43:00,13.0,1.0,30.29,West,275,5.0,8.0,58,0.00,,,0.00,,2013-01-23 06:43:00,
2013-01-23 01:53:00,13.0,1.0,30.29,WNW,291,4.0,8.0,58,0.00,,,0.00,,2013-01-23 06:53:00,
2013-01-23 02:02:00,14.0,2.0,30.30,NW,304,3.0,6.0,58,0.00,,,0.00,,2013-01-23 07:02:00,
2013-01-23 02:12:00,14.0,2.0,30.30,NW,304,3.0,6.0,58,0.00,,,0.00,,2013-01-23 07:12:00,
2013-01-23 02:22:00,14.0,2.0,30.31,WNW,287,5.0,7.0,58,0.00,,,0.00,,2013-01-23 07:22:00,
2013-01-23 02:33:00,14.0,2.0,30.30,WNW,288,2.0,7.0,58,0.00,,,0.00,,2013-01-23 07:33:00,
2013-01-23 02:42:00,14.0,2.0,30.30,WNW,288,2.0,7.0,58,0.00,,,0.00,,2013-01-23 07:42:00,
2013-01-23 02:53:00,14.0,2.0,30.30,WNW,285,7.0,8.0,58,0.00,,,0.00,,2013-01-23 07:53:00,
2013-01-23 03:02:00,14.0,2.0,30.29,WNW,284,4.0,7.0,57,0.00,,,0.00,,2013-01-23 08:02:00,
2013-01-23 03:13:00,14.0,2.0,30.29,WNW,284,4.0,7.0,57,0.00,,,0.00,,2013-01-23 08:13:00,
2013-01-23 03:23:00,14.0,2.0,30.29,West,281,5.0,9.0,57,0.00,,,0.00,,2013-01-23 08:23:00,
2013-01-23 03:33:00,13.0,1.0,30.29,WNW,288,6.0,10.0,57,0.00,,,0.00,,2013-01-23 08:33:00,
2013-01-23 03:43:00,13.0,1.0,30.29,WNW,288,6.0,10.0,57,0.00,,,0.00,,2013-01-23 08:43:00,
2013-01-23 03:53:00,13.0,1.0,30.29,WNW,289,2.0,7.0,57,0.00,,,0.00,,2013-01-23 08:53:00,
2013-01-23 04:03:00,12.0,0.0,30.29,WNW,287,2.0,4.0,57,0.00,,,0.00,,2013-01-23 09:03:00,
2013-01-23 04:12:00,12.0,0.0,30.29,WNW,287,2.0,4.0,57,0.00,,,0.00,,2013-01-23 09:12:00,
2013-01-23 04:22:00,12.0,0.0,30.28,West,275,2.0,3.0,57,0.00,,,0.00,,2013-01-23 09:22:00,
2013-01-23 04:33:00,12.0,0.0,30.28,West,277,2.0,5.0,57,0.00,,,0.00,,2013-01-23 09:33:00,
2013-01-23 04:43:00,12.0,0.0,30.28,West,277,2.0,5.0,57,0.00,,,0.00,,2013-01-23 09:43:00,
2013-01-23 04:53:00,11.0,-1.0,30.28,West,277,2.0,3.0,57,0.00,,,0.00,,2013-01-23 09:53:00,
2013-01-23 05:03:00,11.0,-1.0,30.28,WNW,282,3.0,6.0,57,0.00,,,0.00,,2013-01-23 10:03:00,
2013-01-23 05:12:00,11.0,-1.0,30.28,WNW,282,3.0,6.0,57,0.00,,,0.00,,2013-01-23 10:12:00,
2013-01-23 05:23:00,11.0,-1.0,30.28,West,268,3.0,5.0,57,0.00,,,0.00,,2013-01-23 10:23:00,
2013-01-23 05:33:00,12.0,0.0,30.28,WSW,250,3.0,5.0,57,0.00,,,0.00,,2013-01-23 10:33:00,
2013-01-23 05:43:00,12.0,0.0,30.28,WSW,250,3.0,5.0,57,0.00,,,0.00,,2013-01-23 10:43:00,
2013-01-23 05:53:00,12.0,0.0,30.27,WSW,247,4.0,7.0,57,0.00,,,0.00,,2013-01-23 10:53:00,
2013-01-23 06:02:00,12.0,0.0,30.27,WNW,292,2.0,7.0,57,0.00,,,0.00,,2013-01-23 11:02:00,
2013-01-23 06:12:00,12.0,0.0,30.27,WNW,292,2.0,7.0,57,0.00,,,0.00,,2013-01-23 11:12:00,
2013-01-23 06:23:00,12.0,0.0,30.27,NW,305,5.0,7.0,57,0.00,,,0.00,,2013-01-23 11:23:00,
2013-01-23 06:33:00,12.0,0.0,30.27,WNW,282,4.0,6.0,57,0.00,,,0.00,,2013-01-23 11:33:00,
2013-01-23 06:43:00,12.0,0.0,30.27,WNW,282,4.0,6.0,57,0.00,,,0.00,,2013-01-23 11:43:00,
2013-01-23 06:53:00,13.0,1.0,30.28,West,272,5.0,7.0,57,0.00,,,0.00,,2013-01-23 11:53:00,
2013-01-23 07:03:00,13.0,1.0,30.27,WNW,288,4.0,7.0,57,0.00,,,0.00,,2013-01-23 12:03:00,
2013-01-23 07:13:00,13.0,1.0,30.27,WNW,288,4.0,7.0,57,0.00,,,0.00,,2013-01-23 12:13:00,
2013-01-23 07:22:00,13.0,1.0,30.28,WSW,243,5.0,6.0,57,0.00,,,0.00,,2013-01-23 12:22:00,
2013-01-23 07:33:00,13.0,1.0,30.28,West,274,3.0,6.0,57,0.00,,,0.00,,2013-01-23 12:33:00,
2013-01-23 07:43:00,13.0,1.0,30.28,West,274,3.0,6.0,57,0.00,,,0.00,,2013-01-23 12:43:00,
2013-01-23 07:53:00,13.0,1.0,30.27,West,267,5.0,6.0,57,0.00,,,0.00,,2013-01-23 12:53:00,
2013-01-23 08:04:00,13.0,1.0,30.27,WNW,289,4.0,8.0,57,0.00,,,0.00,,2013-01-23 13:04:00,
2013-01-23 08:13:00,13.0,1.0,30.27,WNW,289,4.0,8.0,57,0.00,,,0.00,,2013-01-23 13:13:00,
2013-01-23 08:23:00,13.0,1.0,30.28,West,274,5.0,7.0,58,0.00,,,0.00,,2013-01-23 13:23:00,
2013-01-23 08:33:00,14.0,2.0,30.28,West,263,5.0,7.0,58,0.00,,,0.00,,2013-01-23 13:33:00,
2013-01-23 08:42:00,14.0,2.0,30.28,West,263,5.0,7.0,58,0.00,,,0.00,,2013-01-23 13:42:00,
2013-01-23 08:53:00,14.0,2.0,30.27,West,281,4.0,8.0,58,0.00,,,0.00,,2013-01-23 13:53:00,
2013-01-23 09:03:00,14.0,2.0,30.27,SW,215,4.0,6.0,58,0.00,,,0.00,,2013-01-23 14:03:00,
2013-01-23 09:12:00,14.0,2.0,30.27,SW,215,4.0,6.0,58,0.00,,,0.00,,2013-01-23 14:12:00,
2013-01-23 09:23:00,14.0,2.0,30.27,WSW,247,5.0,7.0,58,0.00,,,0.00,,2013-01-23 14:23:00,
2013-01-23 09:33:00,14.0,2.0,30.27,WSW,250,2.0,9.0,58,0.00,,,0.00,,2013-01-23 14:33:00,
2013-01-23 09:43:00,14.0,2.0,30.27,WSW,250,2.0,9.0,58,0.00,,,0.00,,2013-01-23 14:43:00,
2013-01-23 09:53:00,15.0,3.0,30.26,West,280,6.0,8.0,58,0.00,,,0.00,,2013-01-23 14:53:00,
2013-01-23 10:03:00,15.0,3.0,30.26,WSW,244,5.0,10.0,58,0.00,,,0.00,,2013-01-23 15:03:00,
2013-01-23 10:13:00,15.0,3.0,30.26,WSW,244,5.0,10.0,58,0.00,,,0.00,,2013-01-23 15:13:00,
2013-01-23 10:23:00,15.0,3.0,30.26,WSW,247,6.0,8.0,58,0.00,,,0.00,,2013-01-23 15:23:00,
2013-01-23 10:33:00,16.0,4.0,30.26,WSW,257,4.0,10.0,58,0.00,,,0.00,,2013-01-23 15:33:00,
2013-01-23 10:43:00,16.0,4.0,30.26,WSW,257,4.0,10.0,58,0.00,,,0.00,,2013-01-23 15:43:00,
2013-01-23 10:53:00,16.0,4.0,30.26,SSW,212,4.0,11.0,58,0.00,,,0.00,,2013-01-23 15:53:00,
2013-01-23 11:03:00,17.0,5.0,30.27,WSW,243,3.0,8.0,58,0.00,,,0.00,,2013-01-23 16:03:00,
2013-01-23 11:12:00,17.0,5.0,30.27,WSW,243,3.0,8.0,58,0.00,,,0.00,,2013-01-23 16:12:00,
2013-01-23 11:23:00,17.0,5.0,30.26,SW,223,8.0,12.0,58,0.00,,,0.00,,2013-01-23 16:23:00,
2013-01-23 11:33:00,17.0,5.0,30.25,SW,233,5.0,12.0,58,0.00,,,0.00,,2013-01-23 16:33:00,
2013-01-23 11:42:00,17.0,5.0,30.25,SW,233,5.0,12.0,58,0.00,,,0.00,,2013-01-23 16:42:00,
2013-01-23 11:53:00,17.0,4.0,30.25,SSW,212,5.0,11.0,57,0.00,,,0.00,,2013-01-23 16:53:00,
2013-01-23 12:03:00,17.0,4.0,30.25,SW,217,6.0,11.0,57,0.00,,,0.00,,2013-01-23 17:03:00,
2013-01-23 12:12:00,17.0,4.0,30.25,SW,217,6.0,11.0,57,0.00,,,0.00,,2013-01-23 17:12:00,
2013-01-23 12:23:00,18.0,5.0,30.24,South,191,6.0,11.0,57,0.00,,,0.00,,2013-01-23 17:23:00,
2013-01-23 12:33:00,18.0,5.0,30.23,WSW,254,12.0,14.0,57,0.00,,,0.00,,2013-01-23 17:33:00,
2013-01-23 12:42:00,18.0,5.0,30.23,WSW,254,12.0,14.0,57,0.00,,,0.00,,2013-01-23 17:42:00,
2013-01-23 12:53:00,18.0,5.0,30.22,WSW,243,9.0,16.0,57,0.00,,,0.00,,2013-01-23 17:53:00,
2013-01-23 13:03:00,19.0,6.0,30.20,WSW,244,4.0,12.0,57,0.00,,,0.00,,2013-01-23 18:03:00,
2013-01-23 13:12:00,19.0,6.0,30.20,WSW,244,4.0,12.0,57,0.00,,,0.00,,2013-01-23 18:12:00,
2013-01-23 13:23:00,19.0,6.0,30.19,WSW,253,9.0,14.0,57,0.00,,,0.00,,2013-01-23 18:23:00,
2013-01-23 13:33:00,19.0,6.0,30.19,WSW,253,9.0,14.0,57,0.00,,,0.00,,2013-01-23 18:33:00,
2013-01-23 13:43:00,19.0,6.0,30.19,WSW,251,9.0,13.0,57,0.00,,,0.00,,2013-01-23 18:43:00,
2013-01-23 13:53:00,20.0,7.0,30.18,WSW,244,6.0,14.0,57,0.00,,,0.00,,2013-01-23 18:53:00,
2013-01-23 14:03:00,20.0,7.0,30.16,SW,226,8.0,13.0,57,0.00,,,0.00,,2013-01-23 19:03:00,
2013-01-23 14:13:00,20.0,7.0,30.16,SW,226,8.0,13.0,57,0.00,,,0.00,,2013-01-23 19:13:00,
2013-01-23 14:23:00,20.0,7.0,30.15,WSW,251,10.0,17.0,56,0.00,,,0.00,,2013-01-23 19:23:00,
2013-01-23 14:33:00,20.0,7.0,30.14,WSW,237,8.0,13.0,56,0.00,,,0.00,,2013-01-23 19:33:00,
2013-01-23 14:43:00,20.0,7.0,30.14,WSW,237,8.0,13.0,56,0.00,,,0.00,,2013-01-23 19:43:00,
2013-01-23 14:53:00,20.0,7.0,30.14,SW,224,5.0,10.0,56,0.00,,,0.00,,2013-01-23 19:53:00,
2013-01-23 15:03:00,20.0,7.0,30.13,SW,229,7.0,11.0,56,0.00,,,0.00,,2013-01-23 20:03:00,
2013-01-23 15:13:00,20.0,7.0,30.13,SW,229,7.0,11.0,56,0.00,,,0.00,,2013-01-23 20:13:00,
2013-01-23 15:23:00,21.0,8.0,30.12,WSW,244,7.0,14.0,56,0.00,,,0.00,,2013-01-23 20:23:00,
2013-01-23 15:33:00,21.0,8.0,30.12,WSW,248,5.0,13.0,56,0.00,,,0.00,,2013-01-23 20:33:00,
2013-01-23 15:43:00,21.0,8.0,30.12,WSW,248,5.0,13.0,56,0.00,,,0.00,,2013-01-23 20:43:00,
2013-01-23 15:54:00,21.0,8.0,30.12,WSW,253,5.0,9.0,56,0.00,,,0.00,,2013-01-23 20:54:00,
2013-01-23 16:03:00,21.0,8.0,30.11,WSW,251,6.0,8.0,56,0.00,,,0.00,,2013-01-23 21:03:00,
2013-01-23 16:12:00,21.0,8.0,30.11,WSW,251,6.0,8.0,56,0.00,,,0.00,,2013-01-23 21:12:00,
2013-01-23 16:23:00,21.0,8.0,30.11,WSW,253,5.0,10.0,57,0.00,,,0.00,,2013-01-23 21:23:00,
2013-01-23 16:33:00,22.0,9.0,30.11,WSW,256,5.0,8.0,56,0.00,,,0.00,,2013-01-23 21:33:00,
2013-01-23 16:43:00,22.0,9.0,30.11,WSW,256,5.0,8.0,56,0.00,,,0.00,,2013-01-23 21:43:00,
2013-01-23 16:53:00,22.0,9.0,30.10,WNW,285,5.0,11.0,56,0.00,,,0.00,,2013-01-23 21:53:00,
2013-01-23 17:03:00,22.0,9.0,30.10,WNW,291,6.0,12.0,56,0.00,,,0.00,,2013-01-23 22:03:00,
2013-01-23 17:12:00,22.0,9.0,30.10,WNW,291,6.0,12.0,56,0.00,,,0.00,,2013-01-23 22:12:00,
2013-01-23 17:23:00,22.0,9.0,30.10,West,277,5.0,11.0,56,0.00,,,0.00,,2013-01-23 22:23:00,
2013-01-23 17:33:00,22.0,9.0,30.09,West,264,6.0,8.0,56,0.00,,,0.00,,2013-01-23 22:33:00,
2013-01-23 17:42:00,22.0,9.0,30.09,West,264,6.0,8.0,56,0.00,,,0.00,,2013-01-23 22:42:00,
2013-01-23 17:53:00,22.0,9.0,30.09,WSW,254,3.0,8.0,56,0.00,,,0.00,,2013-01-23 22:53:00,
2013-01-23 18:03:00,22.0,9.0,30.09,WNW,294,3.0,6.0,56,0.00,,,0.00,,2013-01-23 23:03:00,
2013-01-23 18:13:00,22.0,9.0,30.09,WNW,294,3.0,6.0,56,0.00,,,0.00,,2013-01-23 23:13:00,
2013-01-23 18:23:00,22.0,9.0,30.09,WNW,292,1.0,5.0,56,0.00,,,0.00,,2013-01-23 23:23:00,
2013-01-23 18:33:00,22.0,9.0,30.09,WNW,291,1.0,3.0,56,0.00,,,0.00,,2013-01-23 23:33:00,
2013-01-23 18:43:00,22.0,9.0,30.09,WNW,291,1.0,3.0,56,0.00,,,0.00,,2013-01-23 23:43:00,
2013-01-23 18:53:00,22.0,9.0,30.09,West,278,2.0,5.0,56,0.00,,,0.00,,2013-01-23 23:53:00,
2013-01-23 19:03:00,22.0,9.0,30.09,West,278,2.0,3.0,56,0.00,,,0.00,,2013-01-24 00:03:00,
2013-01-23 19:12:00,22.0,9.0,30.09,West,278,2.0,3.0,56,0.00,,,0.00,,2013-01-24 00:12:00,
2013-01-23 19:22:00,22.0,9.0,30.08,West,268,1.0,5.0,56,0.00,,,0.00,,2013-01-24 00:22:00,
2013-01-23 19:32:00,22.0,9.0,30.07,West,268,0.0,2.0,56,0.00,,,0.00,,2013-01-24 00:32:00,
2013-01-23 19:43:00,22.0,9.0,30.07,West,268,0.0,2.0,56,0.00,,,0.00,,2013-01-24 00:43:00,
2013-01-23 19:53:00,22.0,9.0,30.07,West,268,0.0,0.0,56,0.00,,,0.00,,2013-01-24 00:53:00,
2013-01-23 20:03:00,22.0,9.0,30.07,West,268,0.0,0.0,56,0.00,,,0.00,,2013-01-24 01:03:00,
2013-01-23 20:12:00,22.0,9.0,30.07,West,268,0.0,0.0,56,0.00,,,0.00,,2013-01-24 01:12:00,
2013-01-23 20:23:00,22.0,9.0,30.08,West,268,0.0,0.0,56,0.00,,,0.00,,2013-01-24 01:23:00,
2013-01-23 20:33:00,22.0,9.0,30.07,West,268,0.0,0.0,56,0.00,,,0.00,,2013-01-24 01:33:00,
2013-01-23 20:42:00,22.0,9.0,30.07,West,268,0.0,0.0,56,0.00,,,0.00,,2013-01-24 01:42:00,
2013-01-23 20:53:00,22.0,9.0,30.07,South,171,2.0,5.0,56,0.00,,,0.00,,2013-01-24 01:53:00,
2013-01-23 21:02:00,22.0,9.0,30.06,SSE,164,3.0,5.0,56,0.00,,,0.00,,2013-01-24 02:02:00,
2013-01-23 21:12:00,22.0,9.0,30.06,SSE,164,3.0,5.0,56,0.00,,,0.00,,2013-01-24 02:12:00,
2013-01-23 21:22:00,22.0,9.0,30.06,SSE,161,0.0,0.0,56,0.00,,,0.00,,2013-01-24 02:22:00,
2013-01-23 21:33:00,21.0,8.0,30.06,SSE,165,0.0,3.0,56,0.00,,,0.00,,2013-01-24 02:33:00,
2013-01-23 21:42:00,21.0,8.0,30.06,SSE,165,0.0,3.0,56,0.00,,,0.00,,2013-01-24 02:42:00,
2013-01-23 21:52:00,21.0,8.0,30.06,SSE,165,0.0,3.0,56,0.00,,,0.00,,2013-01-24 02:52:00,
2013-01-23 22:02:00,21.0,8.0,30.06,SW,227,0.0,4.0,56,0.00,,,0.00,,2013-01-24 03:02:00,
2013-01-23 22:12:00,21.0,8.0,30.06,SW,227,0.0,4.0,56,0.00,,,0.00,,2013-01-24 03:12:00,
2013-01-23 22:22:00,21.0,8.0,30.06,SW,224,0.0,5.0,56,0.00,,,0.00,,2013-01-24 03:22:00,
2013-01-23 22:33:00,21.0,8.0,30.07,SW,226,0.0,0.0,56,0.00,,,0.00,,2013-01-24 03:33:00,
2013-01-23 22:43:00,21.0,8.0,30.07,SW,226,0.0,0.0,56,0.00,,,0.00,,2013-01-24 03:43:00,
2013-01-23 22:53:00,22.0,9.0,30.07,SW,226,0.0,0.0,56,0.00,,,0.00,,2013-01-24 03:53:00,
2013-01-23 23:02:00,22.0,9.0,30.08,WSW,254,0.0,0.0,56,0.00,,,0.00,,2013-01-24 04:02:00,
2013-01-23 23:12:00,22.0,9.0,30.08,WSW,254,0.0,0.0,56,0.00,,,0.00,,2013-01-24 04:12:00,
2013-01-23 23:22:00,22.0,9.0,30.09,NW,320,8.0,13.0,56,0.00,,,0.00,,2013-01-24 04:22:00,
2013-01-23 23:33:00,22.0,9.0,30.10,NW,312,7.0,12.0,57,0.00,,,0.00,,2013-01-24 04:33:00,
2013-01-23 23:42:00,22.0,9.0,30.10,NW,312,7.0,12.0,57,0.00,,,0.00,,2013-01-24 04:42:00,
2013-01-23 23:53:00,23.0,10.0,30.10,WNW,292,14.0,22.0,57,0.00,,,0.00,,2013-01-24 04:53:00,